Meteo Giornale » Osservazioni meteo Irlanda » Cork
ore: 20:00 - Osservazioni Meteo Cork
Lat. 51° 51' N Lon. 8° 29' W Alt. 153 metri s.l.m.
16 °C
Molto Nuvoloso
Temp. 24 Ore
12 °C
18 °C
Ovest
11.1 Km/h
Dew point 10 °C
Umidità 67 %
Visibilità 10 Km
Il sole sorge alle ore 06:44
Il sole tramonta alle ore 20:23
| Data e Ora | Cielo e Fenomeni | T °C | DP °C | Um. % | Pres. hPa | Vis. km | Vento km/h | |
|---|---|---|---|---|---|---|---|---|
| Oggi h: 20:00 | Molto Nuvoloso | 16 | 10 | 67 | 1019 | 10 | O 11.1 | |
| Oggi h: 19:30 | Molto Nuvoloso | 16 | 10 | 67 | 1018 | 10 | O 14.8 | |
| Oggi h: 19:00 | Molto Nuvoloso | 16 | 10 | 67 | 1018 | 10 | O/SO 9.3 | |
| Oggi h: 18:30 | Molto Nuvoloso | 17 | 10 | 63 | 1018 | 10 | O/SO 14.8 | |
| Oggi h: 18:00 | Nuvoloso | 17 | 8 | 55 | 1018 | 10 | O 16.7 | |
| Oggi h: 17:30 | Nuvoloso | 18 | 9 | 55 | 1018 | 10 | O 18.5 | |
| Oggi h: 17:00 | Molto Nuvoloso | 17 | 10 | 63 | 1018 | 10 | O 16.7 | |
| Oggi h: 16:30 | Molto Nuvoloso | 18 | 10 | 59 | 1018 | 10 | O 16.7 | |
| Oggi h: 16:00 | Molto Nuvoloso | 18 | 9 | 55 | 1018 | 10 | O 18.5 | |
| Oggi h: 15:30 | Molto Nuvoloso | 18 | 10 | 59 | 1018 | 10 | O 16.7 | |
| Oggi h: 15:00 | Nuvoloso | 18 | 9 | 55 | 1017 | 10 | O 18.5 | |
| Oggi h: 14:30 | Nuvoloso | 18 | 10 | 59 | 1017 | 10 | O 22.2 | |
| Oggi h: 14:00 | Nuvoloso | 18 | 9 | 55 | 1017 | 10 | O 22.2 | |
| Oggi h: 13:30 | Nuvoloso | 18 | 9 | 55 | 1017 | 10 | O 25.9 | |
| Oggi h: 13:00 | Nuvoloso | 17 | 9 | 59 | 1017 | 10 | O/NO 22.2 | |
| Oggi h: 12:30 | Nuvoloso | 16 | 10 | 67 | 1017 | 10 | O 22.2 | |
| Oggi h: 12:00 | Molto Nuvoloso | 15 | 9 | 67 | 1017 | 10 | O/NO 27.8 | |
| Oggi h: 11:30 | Nuvoloso | 16 | 10 | 67 | 1016 | 10 | O 25.9 | |
| Oggi h: 11:00 | Nuvoloso | 16 | 9 | 63 | 1016 | 10 | O/NO 25.9 | |
| Oggi h: 10:30 | Nuvoloso | 15 | 10 | 72 | 1016 | 10 | O/NO 20.3 | |
| Oggi h: 10:00 | Molto Nuvoloso | 15 | 10 | 72 | 1015 | 10 | O/NO 27.8 | |
| Oggi h: 09:30 | Molto Nuvoloso | 15 | 10 | 72 | 1015 | 10 | O 22.2 | |
| Oggi h: 09:00 | Nuvoloso | 14 | 10 | 76 | 1015 | 10 | O 20.3 | |
| Oggi h: 08:30 | Nuvoloso | 13 | 10 | 81 | 1014 | 10 | O 16.7 | |
| Oggi h: 08:00 | Nuvoloso | 13 | 10 | 81 | 1014 | 10 | O/NO 18.5 | |
| Oggi h: 07:30 | Poco Nuvoloso | 12 | 10 | 87 | 1013 | 10 | O 13 | |
| Oggi h: 07:00 | Poco Nuvoloso | 12 | 10 | 87 | 1013 | 10 | O 13 | |
| Oggi h: 06:30 | Poco Nuvoloso | 12 | 10 | 87 | 1012 | 10 | O/NO 14.8 | |
| Oggi h: 06:00 | Poco Nuvoloso | 13 | 10 | 81 | 1012 | 10 | O/NO 20.3 | |
| Oggi h: 05:30 | Poco Nuvoloso | 13 | 10 | 81 | 1012 | 10 | O/NO 20.3 | |
| Oggi h: 05:00 | Poco Nuvoloso | 13 | 10 | 81 | 1011 | 10 | NO 25.9 | |
| Oggi h: 04:30 | Nuvoloso | 13 | 11 | 87 | 1010 | 10 | NO 24 | |
| Oggi h: 04:00 | Poco Nuvoloso | 13 | 11 | 87 | 1010 | 10 | O/NO 29.6 | |
| Oggi h: 03:30 | Molto Nuvoloso | 14 | 11 | 82 | 1010 | 10 | O/NO 24 | |
| Oggi h: 03:00 | Molto Nuvoloso | 14 | 12 | 87 | 1009 | 10 | O/NO 25.9 | |
| Oggi h: 02:30 | Molto Nuvoloso | 14 | 13 | 93 | 1009 | 10 | O/NO 24 | |
| Oggi h: 02:00 | Molto Nuvoloso | 14 | 12 | 87 | 1008 | 10 | O 18.5 | |
| Oggi h: 01:30 | Nuvoloso | 13 | 12 | 93 | 1008 | 10 | O 22.2 | |
| Oggi h: 01:00 | Poco Nuvoloso | 13 | 11 | 87 | 1007 | 10 | O 18.5 | |
| Oggi h: 00:30 | Poco Nuvoloso | 13 | 11 | 87 | 1007 | 10 | O 16.7 | |
| Oggi h: 00:00 | Poco Nuvoloso | 13 | 11 | 87 | 1007 | 10 | O 14.8 | |
| Ieri h: 23:30 | Poco Nuvoloso | 13 | 11 | 87 | 1006 | 10 | O 14.8 | |
| Ieri h: 23:00 | Poco Nuvoloso | 13 | 11 | 87 | 1006 | 10 | O 14.8 | |
| Ieri h: 22:30 | Poco Nuvoloso | 13 | 11 | 87 | 1005 | 10 | O/NO 16.7 | |
| Ieri h: 22:00 | Poco Nuvoloso | 14 | 11 | 82 | 1005 | 10 | O/NO 14.8 | |
| Ieri h: 21:30 | Poco Nuvoloso | 14 | 12 | 87 | 1004 | 10 | O 11.1 | |
| Ieri h: 21:00 | Nuvoloso | 14 | 12 | 87 | 1004 | 10 | O 9.3 | |



